Time,TemperatureF,DewpointF,PressureIn,WindDirection,WindDirectionDegrees,WindSpeedMPH,WindSpeedGustMPH,Humidity,HourlyPrecipIn,Conditions,Clouds,dailyrainin,SolarRadiationWatts/m^2,SoftwareType,DateUTC
2013-06-04 00:00:00,47.6,41.4,29.82,North,5,0.0,3.0,79,0.00,,---,0.00,0.00,VWS V14.00,2013-06-04 04:00:00,
2013-06-04 00:01:00,47.6,41.4,29.82,North,5,0.0,3.0,79,0.00,,---,0.00,0.00,VWS V14.00,2013-06-04 04:01:00,
2013-06-04 00:06:00,47.3,41.5,29.82,North,5,0.0,3.0,80,0.00,,---,0.00,0.00,VWS V14.00,2013-06-04 04:06:00,
2013-06-04 00:11:00,47.2,41.4,29.82,North,5,0.0,3.0,80,0.00,,---,0.00,0.00,VWS V14.00,2013-06-04 04:11:00,
2013-06-04 00:16:00,47.0,41.2,29.82,North,5,1.0,2.0,80,0.00,,---,0.00,0.00,VWS V14.00,2013-06-04 04:16:00,
2013-06-04 00:21:00,46.8,41.0,29.82,North,5,0.0,3.0,80,0.00,,---,0.00,0.00,VWS V14.00,2013-06-04 04:21:00,
2013-06-04 00:26:00,46.4,40.9,29.83,North,5,1.0,3.0,81,0.00,,---,0.00,0.00,VWS V14.00,2013-06-04 04:26:00,
2013-06-04 00:30:00,58.4,55.8,29.73,East,84,0.0,5.0,91,0.00,,---,0.00,0.00,VWS V14.00,2013-06-04 04:30:00,
2013-06-04 00:31:00,46.1,40.6,29.83,North,5,0.0,3.0,81,0.00,,---,0.00,0.00,VWS V14.00,2013-06-04 04:31:00,
2013-06-04 00:36:00,45.8,40.6,29.83,North,5,0.0,3.0,82,0.00,,---,0.00,0.00,VWS V14.00,2013-06-04 04:36:00,
2013-06-04 00:41:00,45.5,40.7,29.83,North,5,0.0,3.0,83,0.00,,---,0.00,0.00,VWS V14.00,2013-06-04 04:41:00,
2013-06-04 00:46:00,45.2,40.7,29.82,NNE,21,2.0,4.0,84,0.00,,---,0.00,0.00,VWS V14.00,2013-06-04 04:46:00,
2013-06-04 00:51:00,44.7,40.2,29.82,NE,44,1.0,4.0,84,0.00,,---,0.00,0.00,VWS V14.00,2013-06-04 04:51:00,
2013-06-04 00:56:00,44.3,39.8,29.83,NE,46,0.0,4.0,84,0.00,,---,0.00,0.00,VWS V14.00,2013-06-04 04:56:00,
2013-06-04 01:00:00,58.1,55.8,29.73,ENE,69,1.0,4.0,92,0.00,,---,0.00,0.00,VWS V14.00,2013-06-04 05:00:00,
2013-06-04 01:01:00,44.1,39.9,29.82,NE,46,0.0,4.0,85,0.00,,---,0.00,0.00,VWS V14.00,2013-06-04 05:01:00,
2013-06-04 01:07:00,44.0,39.8,29.82,NE,46,0.0,4.0,85,0.00,,---,0.00,0.00,VWS V14.00,2013-06-04 05:07:00,
2013-06-04 01:12:00,43.6,39.4,29.82,NE,46,0.0,4.0,85,0.00,,---,0.00,0.00,VWS V14.00,2013-06-04 05:12:00,
2013-06-04 01:17:00,43.2,39.0,29.83,NE,46,0.0,0.0,85,0.00,,---,0.00,0.00,VWS V14.00,2013-06-04 05:17:00,
2013-06-04 01:22:00,42.9,39.0,29.83,NE,46,0.0,0.0,86,0.00,,---,0.00,0.00,VWS V14.00,2013-06-04 05:22:00,
2013-06-04 01:27:00,42.4,38.5,29.83,NE,46,0.0,0.0,86,0.00,,---,0.00,0.00,VWS V14.00,2013-06-04 05:27:00,
2013-06-04 01:30:00,58.1,55.8,29.73,WSW,247,0.0,5.0,92,0.00,,---,0.00,0.00,VWS V14.00,2013-06-04 05:30:00,
2013-06-04 01:32:00,42.0,38.1,29.83,NE,46,0.0,1.0,86,0.00,,---,0.00,0.00,VWS V14.00,2013-06-04 05:32:00,
2013-06-04 01:37:00,42.0,38.4,29.83,NE,46,0.0,1.0,87,0.00,,---,0.00,0.00,VWS V14.00,2013-06-04 05:37:00,
2013-06-04 01:42:00,42.1,38.5,29.83,NE,46,0.0,1.0,87,0.00,,---,0.00,0.00,VWS V14.00,2013-06-04 05:42:00,
2013-06-04 01:47:00,42.1,38.8,29.83,NE,46,0.0,0.0,88,0.00,,---,0.00,0.00,VWS V14.00,2013-06-04 05:47:00,
2013-06-04 01:52:00,42.0,38.7,29.83,NE,46,1.0,1.0,88,0.00,,---,0.00,0.00,VWS V14.00,2013-06-04 05:52:00,
2013-06-04 01:57:00,41.7,38.4,29.83,NE,46,0.0,2.0,88,0.00,,---,0.00,0.00,VWS V14.00,2013-06-04 05:57:00,
2013-06-04 02:00:00,59.0,56.4,29.73,SSW,200,0.0,3.0,91,0.00,,---,0.00,0.00,VWS V14.00,2013-06-04 06:00:00,
2013-06-04 02:02:00,41.6,38.3,29.83,NE,46,1.0,2.0,88,0.00,,---,0.00,0.00,VWS V14.00,2013-06-04 06:02:00,
2013-06-04 02:07:00,41.5,38.2,29.83,NE,46,0.0,2.0,88,0.00,,---,0.00,0.00,VWS V14.00,2013-06-04 06:07:00,
2013-06-04 02:12:00,41.3,38.0,29.83,NE,46,0.0,2.0,88,0.00,,---,0.00,0.00,VWS V14.00,2013-06-04 06:12:00,
2013-06-04 02:17:00,41.2,37.9,29.83,NE,46,0.0,0.0,88,0.00,,---,0.00,0.00,VWS V14.00,2013-06-04 06:17:00,
2013-06-04 02:22:00,40.9,37.6,29.83,NE,46,0.0,1.0,88,0.00,,---,0.00,0.00,VWS V14.00,2013-06-04 06:22:00,
2013-06-04 02:27:00,40.7,37.4,29.83,NE,46,0.0,1.0,88,0.00,,---,0.00,0.00,VWS V14.00,2013-06-04 06:27:00,
2013-06-04 02:30:00,58.2,55.3,29.73,NE,56,0.0,3.0,90,0.00,,---,0.00,0.00,VWS V14.00,2013-06-04 06:30:00,
2013-06-04 02:32:00,40.7,37.4,29.83,NE,46,0.0,1.0,88,0.00,,---,0.00,0.00,VWS V14.00,2013-06-04 06:32:00,
2013-06-04 02:37:00,40.6,37.3,29.83,NE,46,0.0,1.0,88,0.00,,---,0.00,0.00,VWS V14.00,2013-06-04 06:37:00,
2013-06-04 02:42:00,40.6,37.6,29.83,NE,46,0.0,1.0,89,0.00,,---,0.00,0.00,VWS V14.00,2013-06-04 06:42:00,
2013-06-04 02:47:00,40.5,37.5,29.83,NE,46,0.0,1.0,89,0.00,,---,0.00,0.00,VWS V14.00,2013-06-04 06:47:00,
2013-06-04 02:52:00,40.4,37.4,29.83,NE,46,0.0,1.0,89,0.00,,---,0.00,0.00,VWS V14.00,2013-06-04 06:52:00,
2013-06-04 02:57:00,40.2,37.2,29.83,NE,46,0.0,1.0,89,0.00,,---,0.00,0.00,VWS V14.00,2013-06-04 06:57:00,
2013-06-04 03:00:00,57.2,54.6,29.73,NE,56,1.0,2.0,91,0.00,,---,0.00,0.00,VWS V14.00,2013-06-04 07:00:00,
2013-06-04 03:02:00,40.0,37.0,29.83,NE,46,0.0,1.0,89,0.00,,---,0.00,0.00,VWS V14.00,2013-06-04 07:02:00,
2013-06-04 03:07:00,39.8,36.8,29.83,NE,46,1.0,2.0,89,0.00,,---,0.00,0.00,VWS V14.00,2013-06-04 07:07:00,
2013-06-04 03:12:00,39.8,36.8,29.83,NE,46,0.0,2.0,89,0.00,,---,0.00,0.00,VWS V14.00,2013-06-04 07:12:00,
2013-06-04 03:17:00,39.7,36.7,29.83,NE,46,0.0,0.0,89,0.00,,---,0.00,0.00,VWS V14.00,2013-06-04 07:17:00,
2013-06-04 03:22:00,39.5,36.5,29.83,NE,46,0.0,0.0,89,0.00,,---,0.00,0.00,VWS V14.00,2013-06-04 07:22:00,
2013-06-04 03:27:00,39.5,36.5,29.83,NE,46,0.0,1.0,89,0.00,,---,0.00,0.00,VWS V14.00,2013-06-04 07:27:00,
2013-06-04 03:30:00,56.5,54.2,29.73,NE,56,0.0,2.0,92,0.00,,---,0.00,12.00,VWS V14.00,2013-06-04 07:30:00,
2013-06-04 03:32:00,39.5,36.5,29.83,NE,46,0.0,1.0,89,0.00,,---,0.00,0.00,VWS V14.00,2013-06-04 07:32:00,
2013-06-04 03:37:00,39.4,36.4,29.83,NE,46,0.0,1.0,89,0.00,,---,0.00,0.00,VWS V14.00,2013-06-04 07:37:00,
2013-06-04 03:42:00,39.3,36.3,29.83,NE,46,0.0,1.0,89,0.00,,---,0.00,0.00,VWS V14.00,2013-06-04 07:42:00,
2013-06-04 03:47:00,39.1,36.1,29.83,NE,46,0.0,0.0,89,0.00,,---,0.00,0.00,VWS V14.00,2013-06-04 07:47:00,
2013-06-04 03:52:00,39.0,36.3,29.83,NE,46,0.0,0.0,90,0.00,,---,0.00,0.00,VWS V14.00,2013-06-04 07:52:00,
2013-06-04 03:57:00,38.6,35.6,29.83,NE,46,0.0,0.0,89,0.00,,---,0.00,0.00,VWS V14.00,2013-06-04 07:57:00,
2013-06-04 04:00:00,56.6,54.3,29.73,NE,56,0.0,2.0,92,0.00,,---,0.00,16.00,VWS V14.00,2013-06-04 08:00:00,
2013-06-04 04:02:00,38.6,35.9,29.84,NE,46,0.0,1.0,90,0.00,,---,0.00,0.00,VWS V14.00,2013-06-04 08:02:00,
2013-06-04 04:07:00,38.7,36.0,29.84,NE,46,0.0,1.0,90,0.00,,---,0.00,0.00,VWS V14.00,2013-06-04 08:07:00,
2013-06-04 04:12:00,38.8,36.1,29.84,NE,46,0.0,1.0,90,0.00,,---,0.00,0.00,VWS V14.00,2013-06-04 08:12:00,
2013-06-04 04:17:00,38.8,36.1,29.84,NE,46,0.0,0.0,90,0.00,,---,0.00,0.00,VWS V14.00,2013-06-04 08:17:00,
2013-06-04 04:22:00,38.7,36.0,29.84,NE,46,0.0,0.0,90,0.00,,---,0.00,0.00,VWS V14.00,2013-06-04 08:22:00,
2013-06-04 04:27:00,38.4,35.7,29.85,NE,46,0.0,0.0,90,0.00,,---,0.00,0.00,VWS V14.00,2013-06-04 08:27:00,
2013-06-04 04:30:00,56.2,53.9,29.74,NE,56,0.0,2.0,92,0.00,,---,0.00,60.00,VWS V14.00,2013-06-04 08:30:00,
2013-06-04 04:32:00,38.2,35.5,29.84,NE,46,0.0,0.0,90,0.00,,---,0.00,0.00,VWS V14.00,2013-06-04 08:32:00,
2013-06-04 04:38:00,38.2,35.5,29.85,NE,46,0.0,0.0,90,0.00,,---,0.00,0.00,VWS V14.00,2013-06-04 08:38:00,
2013-06-04 04:43:00,38.4,36.0,29.85,NE,46,0.0,0.0,91,0.00,,---,0.00,0.00,VWS V14.00,2013-06-04 08:43:00,
2013-06-04 04:48:00,38.5,35.8,29.85,NE,46,0.0,0.0,90,0.00,,---,0.00,0.00,VWS V14.00,2013-06-04 08:48:00,
2013-06-04 04:53:00,38.6,36.2,29.85,NE,46,0.0,2.0,91,0.00,,---,0.00,0.00,VWS V14.00,2013-06-04 08:53:00,
2013-06-04 04:58:00,38.7,36.3,29.85,NE,46,0.0,2.0,91,0.00,,---,0.00,0.00,VWS V14.00,2013-06-04 08:58:00,
2013-06-04 05:00:00,56.2,53.9,29.74,NE,56,0.0,1.0,92,0.00,,---,0.00,23.00,VWS V14.00,2013-06-04 09:00:00,
2013-06-04 05:03:00,38.7,36.3,29.85,NE,46,0.0,2.0,91,0.00,,---,0.00,0.00,VWS V14.00,2013-06-04 09:03:00,
2013-06-04 05:08:00,38.8,36.4,29.85,NE,46,1.0,2.0,91,0.00,,---,0.00,0.00,VWS V14.00,2013-06-04 09:08:00,
2013-06-04 05:13:00,39.1,36.7,29.85,NE,46,0.0,2.0,91,0.00,,---,0.00,0.00,VWS V14.00,2013-06-04 09:13:00,
2013-06-04 05:18:00,39.7,37.3,29.85,NE,46,0.0,0.0,91,0.00,,---,0.00,5.00,VWS V14.00,2013-06-04 09:18:00,
2013-06-04 05:23:00,39.8,37.4,29.85,NE,46,0.0,0.0,91,0.00,,---,0.00,7.00,VWS V14.00,2013-06-04 09:23:00,
2013-06-04 05:28:00,39.8,37.4,29.85,NE,46,0.0,0.0,91,0.00,,---,0.00,11.00,VWS V14.00,2013-06-04 09:28:00,
2013-06-04 05:30:00,56.7,54.7,29.75,NE,56,0.0,12.0,93,0.00,,---,0.00,42.00,VWS V14.00,2013-06-04 09:30:00,
2013-06-04 05:33:00,39.7,37.3,29.86,NE,46,0.0,0.0,91,0.00,,---,0.00,11.00,VWS V14.00,2013-06-04 09:33:00,
2013-06-04 05:38:00,39.7,37.3,29.86,NE,46,0.0,0.0,91,0.00,,---,0.00,11.00,VWS V14.00,2013-06-04 09:38:00,
2013-06-04 05:43:00,39.7,37.3,29.86,NE,46,0.0,0.0,91,0.00,,---,0.00,12.00,VWS V14.00,2013-06-04 09:43:00,
2013-06-04 05:48:00,39.7,37.3,29.86,NE,46,0.0,1.0,91,0.00,,---,0.00,14.00,VWS V14.00,2013-06-04 09:48:00,
2013-06-04 05:53:00,39.7,37.3,29.86,NE,46,0.0,1.0,91,0.00,,---,0.00,16.00,VWS V14.00,2013-06-04 09:53:00,
2013-06-04 05:58:00,39.8,37.4,29.86,NE,46,0.0,1.0,91,0.00,,---,0.00,21.00,VWS V14.00,2013-06-04 09:58:00,
2013-06-04 06:00:00,58.7,56.7,29.75,East,90,0.0,2.0,93,0.00,,---,0.00,185.00,VWS V14.00,2013-06-04 10:00:00,
2013-06-04 06:03:00,39.9,37.5,29.86,NE,46,0.0,1.0,91,0.00,,---,0.00,35.00,VWS V14.00,2013-06-04 10:03:00,
2013-06-04 06:08:00,40.2,38.1,29.86,NE,46,0.0,1.0,92,0.00,,---,0.00,46.00,VWS V14.00,2013-06-04 10:08:00,
2013-06-04 06:13:00,40.4,38.0,29.87,NE,46,0.0,1.0,91,0.00,,---,0.00,67.00,VWS V14.00,2013-06-04 10:13:00,
2013-06-04 06:18:00,40.9,38.8,29.87,NE,46,0.0,0.0,92,0.00,,---,0.00,30.00,VWS V14.00,2013-06-04 10:18:00,
2013-06-04 06:23:00,40.9,38.5,29.87,NE,46,0.0,1.0,91,0.00,,---,0.00,25.00,VWS V14.00,2013-06-04 10:23:00,
2013-06-04 06:28:00,40.9,38.5,29.87,NE,46,0.0,1.0,91,0.00,,---,0.00,37.00,VWS V14.00,2013-06-04 10:28:00,
2013-06-04 06:30:00,62.1,58.5,29.75,SSE,165,1.0,9.0,88,0.00,,---,0.00,376.00,VWS V14.00,2013-06-04 10:30:00,
2013-06-04 06:33:00,40.9,38.5,29.87,NE,46,0.0,1.0,91,0.00,,---,0.00,40.00,VWS V14.00,2013-06-04 10:33:00,
2013-06-04 06:38:00,41.1,40.3,29.87,NE,46,0.0,1.0,97,0.00,,---,0.00,171.00,VWS V14.00,2013-06-04 10:38:00,
2013-06-04 06:43:00,41.6,39.5,29.87,NE,46,0.0,1.0,92,0.00,,---,0.00,35.00,VWS V14.00,2013-06-04 10:43:00,
2013-06-04 06:48:00,41.9,39.8,29.87,NE,46,0.0,1.0,92,0.00,,---,0.00,26.00,VWS V14.00,2013-06-04 10:48:00,
2013-06-04 06:53:00,42.0,39.8,29.87,NW,322,0.0,3.0,92,0.00,,---,0.00,60.00,VWS V14.00,2013-06-04 10:53:00,
2013-06-04 06:58:00,42.3,40.2,29.87,WNW,296,1.0,5.0,92,0.00,,---,0.00,206.00,VWS V14.00,2013-06-04 10:58:00,
2013-06-04 07:00:00,63.2,58.6,29.76,SW,232,0.0,10.0,85,0.00,,---,0.00,371.00,VWS V14.00,2013-06-04 11:00:00,
2013-06-04 07:03:00,42.8,40.6,29.87,NW,304,3.0,6.0,92,0.00,,---,0.00,218.00,VWS V14.00,2013-06-04 11:03:00,
2013-06-04 07:08:00,43.8,41.6,29.87,NNW,328,3.0,6.0,92,0.00,,---,0.00,229.00,VWS V14.00,2013-06-04 11:08:00,
2013-06-04 07:13:00,44.5,42.3,29.87,NW,309,4.0,6.0,92,0.00,,---,0.00,246.00,VWS V14.00,2013-06-04 11:13:00,
2013-06-04 07:18:00,45.4,42.9,29.87,NNW,340,4.0,6.0,91,0.00,,---,0.00,262.00,VWS V14.00,2013-06-04 11:18:00,
2013-06-04 07:23:00,46.1,43.3,29.88,NW,304,5.0,11.0,90,0.00,,---,0.00,278.00,VWS V14.00,2013-06-04 11:23:00,
2013-06-04 07:28:00,46.8,43.4,29.88,WNW,296,2.0,11.0,88,0.00,,---,0.00,308.00,VWS V14.00,2013-06-04 11:28:00,
2013-06-04 07:30:00,63.0,57.8,29.76,South,180,1.0,6.0,83,0.00,,---,0.00,241.00,VWS V14.00,2013-06-04 11:30:00,
2013-06-04 07:33:00,47.5,43.5,29.88,NW,317,2.0,11.0,86,0.00,,---,0.00,315.00,VWS V14.00,2013-06-04 11:33:00,
2013-06-04 07:38:00,48.1,43.5,29.88,NNW,344,6.0,11.0,84,0.00,,---,0.00,350.00,VWS V14.00,2013-06-04 11:38:00,
2013-06-04 07:43:00,48.7,43.5,29.88,NW,305,3.0,11.0,82,0.00,,---,0.00,320.00,VWS V14.00,2013-06-04 11:43:00,
2013-06-04 07:48:00,49.0,43.1,29.88,NW,316,1.0,12.0,80,0.00,,---,0.00,438.00,VWS V14.00,2013-06-04 11:48:00,
2013-06-04 07:53:00,49.3,42.7,29.88,WNW,284,3.0,12.0,78,0.00,,---,0.00,499.00,VWS V14.00,2013-06-04 11:53:00,
2013-06-04 07:58:00,49.8,43.2,29.88,NW,326,0.0,12.0,78,0.00,,---,0.00,559.00,VWS V14.00,2013-06-04 11:58:00,
2013-06-04 08:00:00,66.3,57.4,29.75,West,267,3.0,9.0,73,0.00,,---,0.00,886.00,VWS V14.00,2013-06-04 12:00:00,
2013-06-04 08:03:00,50.3,43.4,29.88,NW,325,4.0,12.0,77,0.00,,---,0.00,281.00,VWS V14.00,2013-06-04 12:03:00,
2013-06-04 08:08:00,50.2,42.9,29.88,WNW,294,2.0,12.0,76,0.00,,---,0.00,325.00,VWS V14.00,2013-06-04 12:08:00,
2013-06-04 08:13:00,50.4,43.1,29.88,WSW,248,2.0,12.0,76,0.00,,---,0.00,172.00,VWS V14.00,2013-06-04 12:13:00,
2013-06-04 08:18:00,50.4,43.1,29.88,WNW,300,2.0,7.0,76,0.00,,---,0.00,200.00,VWS V14.00,2013-06-04 12:18:00,
2013-06-04 08:24:00,50.1,42.2,29.88,NW,317,3.0,10.0,74,0.00,,---,0.00,223.00,VWS V14.00,2013-06-04 12:24:00,
2013-06-04 08:29:00,50.1,42.8,29.88,NW,317,2.0,10.0,76,0.00,,---,0.00,202.00,VWS V14.00,2013-06-04 12:29:00,
2013-06-04 08:30:00,66.7,57.8,29.75,SW,224,2.0,9.0,73,0.00,,---,0.00,1023.00,VWS V14.00,2013-06-04 12:30:00,
2013-06-04 08:34:00,49.6,41.7,29.89,WNW,297,2.0,10.0,74,0.00,,---,0.00,195.00,VWS V14.00,2013-06-04 12:34:00,
2013-06-04 08:39:00,49.8,42.9,29.89,WSW,238,5.0,10.0,77,0.00,,---,0.00,244.00,VWS V14.00,2013-06-04 12:39:00,
2013-06-04 08:44:00,49.7,41.4,29.89,WNW,302,8.0,12.0,73,0.00,,---,0.00,158.00,VWS V14.00,2013-06-04 12:44:00,
2013-06-04 08:49:00,49.7,41.4,29.89,NW,311,6.0,13.0,73,0.00,,---,0.00,199.00,VWS V14.00,2013-06-04 12:49:00,
2013-06-04 08:54:00,49.8,41.5,29.89,West,259,4.0,15.0,73,0.00,,---,0.00,207.00,VWS V14.00,2013-06-04 12:54:00,
2013-06-04 08:59:00,49.7,41.4,29.89,NNE,25,7.0,15.0,73,0.00,,---,0.00,148.00,VWS V14.00,2013-06-04 12:59:00,
2013-06-04 09:00:00,67.4,56.9,29.75,WNW,282,0.0,10.0,69,0.00,,---,0.00,1018.00,VWS V14.00,2013-06-04 13:00:00,
2013-06-04 09:04:00,49.7,41.0,29.89,West,263,1.0,15.0,72,0.00,,---,0.00,172.00,VWS V14.00,2013-06-04 13:04:00,
2013-06-04 09:09:00,49.8,41.5,29.89,WSW,252,0.0,15.0,73,0.00,,---,0.00,192.00,VWS V14.00,2013-06-04 13:09:00,
2013-06-04 09:14:00,49.9,41.2,29.90,WNW,302,2.0,15.0,72,0.00,,---,0.00,260.00,VWS V14.00,2013-06-04 13:14:00,
2013-06-04 09:19:00,50.0,41.3,29.90,WNW,286,6.0,10.0,72,0.00,,---,0.00,330.00,VWS V14.00,2013-06-04 13:19:00,
2013-06-04 09:24:00,50.2,41.5,29.89,WNW,302,4.0,13.0,72,0.00,,---,0.00,251.00,VWS V14.00,2013-06-04 13:24:00,
2013-06-04 09:29:00,50.4,41.7,29.89,WSW,239,0.0,13.0,72,0.00,,---,0.00,251.00,VWS V14.00,2013-06-04 13:29:00,
2013-06-04 09:30:00,69.0,58.0,29.75,South,187,3.0,12.0,68,0.00,,---,0.00,1069.00,VWS V14.00,2013-06-04 13:30:00,
2013-06-04 09:34:00,50.8,42.5,29.90,WNW,284,1.0,13.0,73,0.00,,---,0.00,230.00,VWS V14.00,2013-06-04 13:34:00,
2013-06-04 09:39:00,50.8,41.8,29.90,NW,306,5.0,13.0,71,0.00,,---,0.00,186.00,VWS V14.00,2013-06-04 13:39:00,
2013-06-04 09:44:00,50.8,42.1,29.90,NW,319,5.0,13.0,72,0.00,,---,0.00,214.00,VWS V14.00,2013-06-04 13:44:00,
2013-06-04 09:49:00,50.7,42.0,29.90,WNW,288,3.0,7.0,72,0.00,,---,0.00,325.00,VWS V14.00,2013-06-04 13:49:00,
2013-06-04 09:54:00,50.9,42.2,29.90,WNW,288,5.0,8.0,72,0.00,,---,0.00,262.00,VWS V14.00,2013-06-04 13:54:00,
2013-06-04 09:59:00,51.4,42.7,29.90,NW,325,4.0,8.0,72,0.00,,---,0.00,378.00,VWS V14.00,2013-06-04 13:59:00,
2013-06-04 10:00:00,67.7,56.0,29.74,SW,225,4.0,13.0,66,0.00,,---,0.00,209.00,VWS V14.00,2013-06-04 14:00:00,
2013-06-04 10:04:00,52.0,42.5,29.90,WNW,302,8.0,12.0,70,0.00,,---,0.00,272.00,VWS V14.00,2013-06-04 14:04:00,
2013-06-04 10:09:00,51.9,42.4,29.90,WNW,283,3.0,12.0,70,0.00,,---,0.00,459.00,VWS V14.00,2013-06-04 14:09:00,
2013-06-04 10:14:00,52.4,42.5,29.90,SSW,213,1.0,12.0,69,0.00,,---,0.00,288.00,VWS V14.00,2013-06-04 14:14:00,
2013-06-04 10:19:00,52.6,42.7,29.91,WNW,290,7.0,7.0,69,0.00,,---,0.00,230.00,VWS V14.00,2013-06-04 14:19:00,
2013-06-04 10:24:00,52.6,42.7,29.91,SW,223,0.0,9.0,69,0.00,,---,0.00,290.00,VWS V14.00,2013-06-04 14:24:00,
2013-06-04 10:29:00,52.7,42.5,29.91,WNW,284,4.0,11.0,68,0.00,,---,0.00,313.00,VWS V14.00,2013-06-04 14:29:00,
2013-06-04 10:30:00,68.2,56.0,29.75,SSW,199,7.0,11.0,65,0.00,,---,0.00,1116.00,VWS V14.00,2013-06-04 14:30:00,
2013-06-04 10:34:00,52.5,41.5,29.91,WNW,296,2.0,11.0,66,0.00,,---,0.00,241.00,VWS V14.00,2013-06-04 14:34:00,
2013-06-04 10:39:00,52.2,42.0,29.92,NW,309,2.0,11.0,68,0.00,,---,0.00,257.00,VWS V14.00,2013-06-04 14:39:00,
2013-06-04 10:44:00,52.0,41.8,29.92,WNW,290,6.0,11.0,68,0.00,,---,0.00,434.00,VWS V14.00,2013-06-04 14:44:00,
2013-06-04 10:49:00,52.0,41.8,29.92,NW,323,8.0,11.0,68,0.00,,---,0.00,330.00,VWS V14.00,2013-06-04 14:49:00,
2013-06-04 10:54:00,51.9,42.1,29.92,West,279,7.0,11.0,69,0.00,,---,0.00,241.00,VWS V14.00,2013-06-04 14:54:00,
2013-06-04 10:59:00,51.9,42.4,29.92,WNW,290,1.0,11.0,70,0.00,,---,0.00,450.00,VWS V14.00,2013-06-04 14:59:00,
2013-06-04 11:00:00,67.5,55.3,29.74,WNW,300,2.0,11.0,65,0.00,,---,0.00,385.00,VWS V14.00,2013-06-04 15:00:00,
2013-06-04 11:04:00,52.0,42.5,29.92,WNW,301,2.0,11.0,70,0.00,,---,0.00,320.00,VWS V14.00,2013-06-04 15:04:00,
2013-06-04 11:09:00,52.1,41.9,29.92,West,268,0.0,11.0,68,0.00,,---,0.00,346.00,VWS V14.00,2013-06-04 15:09:00,
2013-06-04 11:14:00,52.0,41.8,29.93,West,280,4.0,13.0,68,0.00,,---,0.00,214.00,VWS V14.00,2013-06-04 15:14:00,
2013-06-04 11:19:00,52.0,42.5,29.93,WNW,294,2.0,5.0,70,0.00,,---,0.00,200.00,VWS V14.00,2013-06-04 15:19:00,
2013-06-04 11:25:00,52.3,42.8,29.93,WNW,286,2.0,8.0,70,0.00,,---,0.00,267.00,VWS V14.00,2013-06-04 15:25:00,
2013-06-04 11:30:00,52.2,42.0,29.94,NW,315,3.0,8.0,68,0.00,,---,0.00,144.00,VWS V14.00,2013-06-04 15:30:00,
2013-06-04 11:35:00,52.1,42.2,29.94,West,261,1.0,12.0,69,0.00,,---,0.00,246.00,VWS V14.00,2013-06-04 15:35:00,
2013-06-04 11:40:00,52.4,42.9,29.94,NNW,345,3.0,12.0,70,0.00,,---,0.00,357.00,VWS V14.00,2013-06-04 15:40:00,
2013-06-04 11:45:00,52.7,43.6,29.94,NNW,331,0.0,2.0,71,0.00,,---,0.00,243.00,VWS V14.00,2013-06-04 15:45:00,
2013-06-04 11:50:00,52.7,42.5,29.94,NNW,331,2.0,13.0,68,0.00,,---,0.00,302.00,VWS V14.00,2013-06-04 15:50:00,
2013-06-04 11:55:00,52.6,42.3,29.95,NW,308,2.0,13.0,68,0.00,,---,0.00,313.00,VWS V14.00,2013-06-04 15:55:00,
2013-06-04 12:00:00,52.7,42.8,29.95,WSW,257,0.0,13.0,69,0.00,,---,0.00,413.00,VWS V14.00,2013-06-04 16:00:00,
2013-06-04 12:05:00,53.3,43.8,29.95,North,355,1.0,13.0,70,0.00,,---,0.00,373.00,VWS V14.00,2013-06-04 16:05:00,
2013-06-04 12:10:00,54.2,43.9,29.95,NW,323,1.0,13.0,68,0.00,,---,0.00,341.00,VWS V14.00,2013-06-04 16:10:00,
2013-06-04 12:15:00,54.0,42.9,29.95,WNW,300,6.0,7.0,66,0.00,,---,0.00,346.00,VWS V14.00,2013-06-04 16:15:00,
2013-06-04 12:20:00,53.9,44.0,29.95,NW,316,5.0,9.0,69,0.00,,---,0.00,392.00,VWS V14.00,2013-06-04 16:20:00,
2013-06-04 12:25:00,54.0,43.7,29.95,WNW,284,4.0,9.0,68,0.00,,---,0.00,408.00,VWS V14.00,2013-06-04 16:25:00,
2013-06-04 12:30:00,54.3,43.6,29.95,WNW,290,7.0,9.0,67,0.00,,---,0.00,336.00,VWS V14.00,2013-06-04 16:30:00,
2013-06-04 12:35:00,54.5,44.2,29.95,West,273,5.0,10.0,68,0.00,,---,0.00,554.00,VWS V14.00,2013-06-04 16:35:00,
2013-06-04 12:40:00,54.8,43.7,29.95,NW,315,8.0,13.0,66,0.00,,---,0.00,712.00,VWS V14.00,2013-06-04 16:40:00,
2013-06-04 12:45:00,55.5,44.3,29.96,NNW,334,15.0,15.0,66,0.00,,---,0.00,548.00,VWS V14.00,2013-06-04 16:45:00,
2013-06-04 12:50:00,55.6,43.2,29.95,NNW,330,4.0,15.0,63,0.00,,---,0.00,1178.00,VWS V14.00,2013-06-04 16:50:00,
2013-06-04 12:55:00,57.2,44.3,29.96,West,268,3.0,15.0,62,0.00,,---,0.00,1209.00,VWS V14.00,2013-06-04 16:55:00,
2013-06-04 13:00:00,57.6,44.7,29.96,WNW,296,7.0,15.0,62,0.00,,---,0.00,1209.00,VWS V14.00,2013-06-04 17:00:00,
2013-06-04 13:05:00,57.1,44.2,29.96,WNW,285,5.0,15.0,62,0.00,,---,0.00,294.00,VWS V14.00,2013-06-04 17:05:00,
2013-06-04 13:11:00,56.6,44.2,29.96,SW,217,3.0,15.0,63,0.00,,---,0.00,1151.00,VWS V14.00,2013-06-04 17:11:00,
2013-06-04 13:16:00,56.9,44.0,29.96,NNW,331,11.0,11.0,62,0.00,,---,0.00,381.00,VWS V14.00,2013-06-04 17:16:00,
2013-06-04 13:21:00,57.5,45.8,29.95,NE,42,5.0,11.0,65,0.00,,---,0.00,564.00,VWS V14.00,2013-06-04 17:21:00,
2013-06-04 13:26:00,57.8,44.9,29.96,North,360,12.0,15.0,62,0.00,,---,0.00,1250.00,VWS V14.00,2013-06-04 17:26:00,
2013-06-04 13:30:00,67.7,50.5,29.74,West,275,2.0,12.0,54,0.00,,---,0.00,997.00,VWS V14.00,2013-06-04 17:30:00,
2013-06-04 13:31:00,57.7,43.9,29.96,NW,307,7.0,15.0,60,0.00,,---,0.00,1250.00,VWS V14.00,2013-06-04 17:31:00,
2013-06-04 13:36:00,57.6,45.1,29.95,WNW,287,7.0,15.0,63,0.00,,---,0.00,1016.00,VWS V14.00,2013-06-04 17:36:00,
2013-06-04 13:41:00,57.7,44.4,29.96,WNW,302,4.0,15.0,61,0.00,,---,0.00,1063.00,VWS V14.00,2013-06-04 17:41:00,
2013-06-04 13:46:00,57.7,43.9,29.95,WNW,292,6.0,11.0,60,0.00,,---,0.00,1116.00,VWS V14.00,2013-06-04 17:46:00,
2013-06-04 13:51:00,58.1,44.7,29.96,North,5,10.0,17.0,61,0.00,,---,0.00,976.00,VWS V14.00,2013-06-04 17:51:00,
2013-06-04 13:56:00,58.1,43.9,29.95,WNW,294,12.0,17.0,59,0.00,,---,0.00,974.00,VWS V14.00,2013-06-04 17:56:00,
2013-06-04 14:00:00,67.4,48.7,29.74,SW,214,7.0,10.0,51,0.00,,---,0.00,701.00,VWS V14.00,2013-06-04 18:00:00,
2013-06-04 14:01:00,58.2,44.4,29.96,WNW,300,5.0,21.0,60,0.00,,---,0.00,1007.00,VWS V14.00,2013-06-04 18:01:00,
2013-06-04 14:06:00,58.3,44.9,29.96,NNW,332,8.0,21.0,61,0.00,,---,0.00,926.00,VWS V14.00,2013-06-04 18:06:00,
2013-06-04 14:11:00,58.8,45.0,29.95,WNW,292,7.0,21.0,60,0.00,,---,0.00,933.00,VWS V14.00,2013-06-04 18:11:00,
2013-06-04 14:16:00,59.7,45.8,29.96,West,269,4.0,10.0,60,0.00,,---,0.00,921.00,VWS V14.00,2013-06-04 18:16:00,
2013-06-04 14:21:00,59.4,44.2,29.95,WNW,285,12.0,13.0,57,0.00,,---,0.00,904.00,VWS V14.00,2013-06-04 18:21:00,
2013-06-04 14:26:00,59.3,43.6,29.95,West,280,5.0,13.0,56,0.00,,---,0.00,898.00,VWS V14.00,2013-06-04 18:26:00,
2013-06-04 14:30:00,66.9,47.7,29.74,WNW,302,2.0,12.0,50,0.00,,---,0.00,626.00,VWS V14.00,2013-06-04 18:30:00,
2013-06-04 14:31:00,59.6,44.8,29.95,WNW,291,14.0,17.0,58,0.00,,---,0.00,900.00,VWS V14.00,2013-06-04 18:31:00,
2013-06-04 14:36:00,59.9,45.1,29.95,West,275,7.0,18.0,58,0.00,,---,0.00,877.00,VWS V14.00,2013-06-04 18:36:00,
2013-06-04 14:41:00,59.8,44.1,29.95,WNW,301,6.0,18.0,56,0.00,,---,0.00,872.00,VWS V14.00,2013-06-04 18:41:00,
2013-06-04 14:46:00,59.8,43.6,29.95,WNW,290,5.0,16.0,55,0.00,,---,0.00,868.00,VWS V14.00,2013-06-04 18:46:00,
2013-06-04 14:51:00,59.6,44.4,29.95,ENE,78,5.0,22.0,57,0.00,,---,0.00,860.00,VWS V14.00,2013-06-04 18:51:00,
2013-06-04 14:57:00,59.8,45.5,29.95,North,350,3.0,22.0,59,0.00,,---,0.00,851.00,VWS V14.00,2013-06-04 18:57:00,
2013-06-04 15:00:00,66.8,47.6,29.74,WSW,241,1.0,13.0,50,0.00,,---,0.00,541.00,VWS V14.00,2013-06-04 19:00:00,
2013-06-04 15:02:00,60.0,44.3,29.95,SW,235,3.0,22.0,56,0.00,,---,0.00,844.00,VWS V14.00,2013-06-04 19:02:00,
2013-06-04 15:07:00,60.1,43.9,29.96,North,5,8.0,22.0,55,0.00,,---,0.00,835.00,VWS V14.00,2013-06-04 19:07:00,
2013-06-04 15:12:00,60.2,44.5,29.96,WSW,254,3.0,22.0,56,0.00,,---,0.00,828.00,VWS V14.00,2013-06-04 19:12:00,
2013-06-04 15:17:00,60.7,44.5,29.96,West,269,6.0,10.0,55,0.00,,---,0.00,814.00,VWS V14.00,2013-06-04 19:17:00,
2013-06-04 15:22:00,60.4,44.2,29.96,NW,309,9.0,15.0,55,0.00,,---,0.00,807.00,VWS V14.00,2013-06-04 19:22:00,
2013-06-04 15:27:00,60.4,44.7,29.96,NNW,328,10.0,15.0,56,0.00,,---,0.00,798.00,VWS V14.00,2013-06-04 19:27:00,
2013-06-04 15:30:00,66.9,47.1,29.74,WSW,241,0.0,13.0,49,0.00,,---,0.00,457.00,VWS V14.00,2013-06-04 19:30:00,
2013-06-04 15:32:00,60.6,44.8,29.97,WNW,286,7.0,16.0,56,0.00,,---,0.00,786.00,VWS V14.00,2013-06-04 19:32:00,
2013-06-04 15:37:00,60.9,45.1,29.96,WNW,303,12.0,18.0,56,0.00,,---,0.00,775.00,VWS V14.00,2013-06-04 19:37:00,
2013-06-04 15:42:00,60.8,44.5,29.96,NE,42,4.0,18.0,55,0.00,,---,0.00,770.00,VWS V14.00,2013-06-04 19:42:00,
2013-06-04 15:47:00,61.1,45.3,29.96,North,5,5.0,7.0,56,0.00,,---,0.00,756.00,VWS V14.00,2013-06-04 19:47:00,
2013-06-04 15:52:00,61.2,44.9,29.96,NW,315,5.0,12.0,55,0.00,,---,0.00,747.00,VWS V14.00,2013-06-04 19:52:00,
2013-06-04 15:57:00,61.0,43.8,29.96,WNW,301,7.0,17.0,53,0.00,,---,0.00,733.00,VWS V14.00,2013-06-04 19:57:00,
2013-06-04 16:00:00,66.2,45.4,29.74,NW,304,2.0,9.0,47,0.00,,---,0.00,288.00,VWS V14.00,2013-06-04 20:00:00,
2013-06-04 16:02:00,61.1,44.8,29.97,NNE,18,6.0,17.0,55,0.00,,---,0.00,721.00,VWS V14.00,2013-06-04 20:02:00,
2013-06-04 16:07:00,61.4,45.6,29.97,WNW,298,13.0,17.0,56,0.00,,---,0.00,708.00,VWS V14.00,2013-06-04 20:07:00,
2013-06-04 16:12:00,61.4,45.1,29.96,NNE,15,3.0,20.0,55,0.00,,---,0.00,698.00,VWS V14.00,2013-06-04 20:12:00,
2013-06-04 16:17:00,61.2,44.0,29.96,NW,317,5.0,12.0,53,0.00,,---,0.00,682.00,VWS V14.00,2013-06-04 20:17:00,
2013-06-04 16:22:00,61.0,44.2,29.97,NNW,338,6.0,14.0,54,0.00,,---,0.00,670.00,VWS V14.00,2013-06-04 20:22:00,
2013-06-04 16:27:00,61.3,45.5,29.97,North,9,4.0,14.0,56,0.00,,---,0.00,661.00,VWS V14.00,2013-06-04 20:27:00,
2013-06-04 16:30:00,66.2,46.5,29.75,West,265,0.0,5.0,49,0.00,,---,0.00,232.00,VWS V14.00,2013-06-04 20:30:00,
2013-06-04 16:32:00,61.4,44.6,29.96,NW,311,9.0,14.0,54,0.00,,---,0.00,649.00,VWS V14.00,2013-06-04 20:32:00,
2013-06-04 16:37:00,61.6,45.3,29.97,NW,313,12.0,14.0,55,0.00,,---,0.00,633.00,VWS V14.00,2013-06-04 20:37:00,
2013-06-04 16:42:00,61.6,44.3,29.96,West,271,10.0,14.0,53,0.00,,---,0.00,622.00,VWS V14.00,2013-06-04 20:42:00,
2013-06-04 16:47:00,61.2,44.0,29.97,NE,51,2.0,13.0,53,0.00,,---,0.00,608.00,VWS V14.00,2013-06-04 20:47:00,
2013-06-04 16:52:00,61.1,44.3,29.96,NW,320,4.0,13.0,54,0.00,,---,0.00,592.00,VWS V14.00,2013-06-04 20:52:00,
2013-06-04 16:57:00,61.1,43.9,29.96,WSW,244,3.0,13.0,53,0.00,,---,0.00,580.00,VWS V14.00,2013-06-04 20:57:00,
2013-06-04 17:00:00,64.2,45.7,29.75,West,264,0.0,5.0,51,0.00,,---,0.00,33.00,VWS V14.00,2013-06-04 21:00:00,
2013-06-04 17:02:00,61.0,43.8,29.96,WNW,283,10.0,14.0,53,0.00,,---,0.00,482.00,VWS V14.00,2013-06-04 21:02:00,
2013-06-04 17:07:00,60.9,44.6,29.96,NNW,341,2.0,16.0,55,0.00,,---,0.00,559.00,VWS V14.00,2013-06-04 21:07:00,
2013-06-04 17:12:00,61.4,44.1,29.96,WNW,296,9.0,17.0,53,0.00,,---,0.00,548.00,VWS V14.00,2013-06-04 21:12:00,
2013-06-04 17:17:00,61.4,44.6,29.96,West,269,12.0,14.0,54,0.00,,---,0.00,529.00,VWS V14.00,2013-06-04 21:17:00,
2013-06-04 17:22:00,61.4,45.1,29.97,WNW,298,3.0,14.0,55,0.00,,---,0.00,515.00,VWS V14.00,2013-06-04 21:22:00,
2013-06-04 17:27:00,61.6,45.3,29.96,NW,317,5.0,14.0,55,0.00,,---,0.00,497.00,VWS V14.00,2013-06-04 21:27:00,
2013-06-04 17:30:00,62.2,42.8,29.76,WNW,300,0.0,11.0,49,0.00,,---,0.00,21.00,VWS V14.00,2013-06-04 21:30:00,
2013-06-04 17:32:00,61.7,45.4,29.97,NW,323,3.0,14.0,55,0.00,,---,0.00,482.00,VWS V14.00,2013-06-04 21:32:00,
2013-06-04 17:37:00,61.4,45.1,29.97,NNW,347,3.0,14.0,55,0.00,,---,0.00,466.00,VWS V14.00,2013-06-04 21:37:00,
2013-06-04 17:42:00,61.2,44.4,29.97,NNE,19,7.0,14.0,54,0.00,,---,0.00,454.00,VWS V14.00,2013-06-04 21:42:00,
2013-06-04 17:47:00,60.9,45.1,29.98,WNW,284,8.0,13.0,56,0.00,,---,0.00,436.00,VWS V14.00,2013-06-04 21:47:00,
2013-06-04 17:52:00,60.9,45.6,29.98,NE,53,1.0,13.0,57,0.00,,---,0.00,424.00,VWS V14.00,2013-06-04 21:52:00,
2013-06-04 17:57:00,61.0,45.2,29.98,North,5,6.0,13.0,56,0.00,,---,0.00,408.00,VWS V14.00,2013-06-04 21:57:00,
2013-06-04 18:00:00,60.4,43.2,29.77,WNW,293,0.0,7.0,53,0.00,,---,0.00,11.00,VWS V14.00,2013-06-04 22:00:00,
2013-06-04 18:02:00,60.9,45.1,29.99,North,351,5.0,13.0,56,0.00,,---,0.00,397.00,VWS V14.00,2013-06-04 22:02:00,
2013-06-04 18:07:00,60.7,45.4,29.99,North,9,3.0,13.0,57,0.00,,---,0.00,378.00,VWS V14.00,2013-06-04 22:07:00,
2013-06-04 18:12:00,60.6,44.8,29.99,NNW,331,6.0,13.0,56,0.00,,---,0.00,360.00,VWS V14.00,2013-06-04 22:12:00,
2013-06-04 18:17:00,60.6,45.8,29.99,West,262,3.0,8.0,58,0.00,,---,0.00,346.00,VWS V14.00,2013-06-04 22:17:00,
2013-06-04 18:22:00,60.5,45.2,29.99,NW,309,5.0,9.0,57,0.00,,---,0.00,330.00,VWS V14.00,2013-06-04 22:22:00,
2013-06-04 18:27:00,60.6,45.3,29.99,North,360,4.0,10.0,57,0.00,,---,0.00,315.00,VWS V14.00,2013-06-04 22:27:00,
2013-06-04 18:30:00,57.5,46.2,29.77,WNW,293,0.0,2.0,66,0.00,,---,0.00,0.00,VWS V14.00,2013-06-04 22:30:00,
2013-06-04 18:32:00,60.5,45.7,29.99,North,5,8.0,10.0,58,0.00,,---,0.00,299.00,VWS V14.00,2013-06-04 22:32:00,
2013-06-04 18:37:00,60.4,45.6,30.00,NNW,340,3.0,10.0,58,0.00,,---,0.00,281.00,VWS V14.00,2013-06-04 22:37:00,
2013-06-04 18:42:00,60.3,45.0,29.99,North,360,3.0,10.0,57,0.00,,---,0.00,265.00,VWS V14.00,2013-06-04 22:42:00,
2013-06-04 18:47:00,60.2,45.4,30.00,NNW,348,5.0,7.0,58,0.00,,---,0.00,132.00,VWS V14.00,2013-06-04 22:47:00,
2013-06-04 18:52:00,60.0,45.7,30.00,North,5,6.0,9.0,59,0.00,,---,0.00,86.00,VWS V14.00,2013-06-04 22:52:00,
2013-06-04 18:57:00,59.6,45.3,30.00,NNW,346,5.0,11.0,59,0.00,,---,0.00,44.00,VWS V14.00,2013-06-04 22:57:00,
2013-06-04 19:00:00,52.8,45.5,29.78,WNW,294,0.0,2.0,76,0.00,,---,0.00,0.00,VWS V14.00,2013-06-04 23:00:00,
2013-06-04 19:02:00,59.2,45.3,30.00,NW,309,4.0,11.0,60,0.00,,---,0.00,47.00,VWS V14.00,2013-06-04 23:02:00,
2013-06-04 19:07:00,59.0,45.2,30.01,North,360,6.0,11.0,60,0.00,,---,0.00,33.00,VWS V14.00,2013-06-04 23:07:00,
2013-06-04 19:12:00,58.8,45.0,30.01,NNW,348,1.0,11.0,60,0.00,,---,0.00,30.00,VWS V14.00,2013-06-04 23:12:00,
2013-06-04 19:17:00,58.7,45.3,30.01,NNW,340,2.0,4.0,61,0.00,,---,0.00,33.00,VWS V14.00,2013-06-04 23:17:00,
2013-06-04 19:22:00,58.5,45.1,30.01,North,5,3.0,10.0,61,0.00,,---,0.00,33.00,VWS V14.00,2013-06-04 23:22:00,
2013-06-04 19:27:00,58.3,44.5,30.02,North,10,5.0,10.0,60,0.00,,---,0.00,28.00,VWS V14.00,2013-06-04 23:27:00,
2013-06-04 19:30:00,50.6,44.0,29.79,NW,325,0.0,3.0,78,0.00,,---,0.00,0.00,VWS V14.00,2013-06-04 23:30:00,
2013-06-04 19:32:00,58.1,44.7,30.02,NNW,329,0.0,10.0,61,0.00,,---,0.00,26.00,VWS V14.00,2013-06-04 23:32:00,
2013-06-04 19:37:00,57.9,44.5,30.02,NNE,17,2.0,10.0,61,0.00,,---,0.00,25.00,VWS V14.00,2013-06-04 23:37:00,
2013-06-04 19:43:00,57.7,44.8,30.02,North,11,4.0,10.0,62,0.00,,---,0.00,21.00,VWS V14.00,2013-06-04 23:43:00,
2013-06-04 19:48:00,57.5,44.6,30.03,WNW,299,0.0,7.0,62,0.00,,---,0.00,21.00,VWS V14.00,2013-06-04 23:48:00,
2013-06-04 19:53:00,57.3,44.4,30.03,North,355,1.0,9.0,62,0.00,,---,0.00,21.00,VWS V14.00,2013-06-04 23:53:00,
2013-06-04 19:58:00,57.1,44.2,30.03,South,177,0.0,9.0,62,0.00,,---,0.00,19.00,VWS V14.00,2013-06-04 23:58:00,
2013-06-04 20:00:00,49.3,43.7,29.80,NE,44,0.0,3.0,81,0.00,,---,0.00,0.00,VWS V14.00,2013-06-05 00:00:00,
2013-06-04 20:03:00,56.9,44.5,30.03,North,349,3.0,9.0,63,0.00,,---,0.00,16.00,VWS V14.00,2013-06-05 00:03:00,
2013-06-04 20:08:00,56.7,44.3,30.03,NNE,30,2.0,12.0,63,0.00,,---,0.00,11.00,VWS V14.00,2013-06-05 00:08:00,
2013-06-04 20:13:00,56.4,44.4,30.03,NW,313,5.0,12.0,64,0.00,,---,0.00,9.00,VWS V14.00,2013-06-05 00:13:00,
2013-06-04 20:18:00,56.2,44.6,30.03,NNE,27,1.0,5.0,65,0.00,,---,0.00,7.00,VWS V14.00,2013-06-05 00:18:00,
2013-06-04 20:23:00,55.9,44.7,30.03,North,350,3.0,5.0,66,0.00,,---,0.00,5.00,VWS V14.00,2013-06-05 00:23:00,
2013-06-04 20:28:00,55.6,44.4,30.03,NW,305,2.0,5.0,66,0.00,,---,0.00,0.00,VWS V14.00,2013-06-05 00:28:00,
2013-06-04 20:30:00,48.1,42.9,29.80,NE,44,0.0,3.0,82,0.00,,---,0.00,0.00,VWS V14.00,2013-06-05 00:30:00,
2013-06-04 20:33:00,55.3,44.5,30.04,WNW,295,6.0,8.0,67,0.00,,---,0.00,0.00,VWS V14.00,2013-06-05 00:33:00,
2013-06-04 20:38:00,55.1,44.3,30.04,NW,311,0.0,8.0,67,0.00,,---,0.00,0.00,VWS V14.00,2013-06-05 00:38:00,
2013-06-04 20:43:00,54.8,44.5,30.04,NW,309,4.0,8.0,68,0.00,,---,0.00,0.00,VWS V14.00,2013-06-05 00:43:00,
2013-06-04 20:48:00,54.6,44.7,30.04,NW,316,4.0,7.0,69,0.00,,---,0.00,0.00,VWS V14.00,2013-06-05 00:48:00,
2013-06-04 20:53:00,54.4,44.5,30.04,NW,309,6.0,7.0,69,0.00,,---,0.00,0.00,VWS V14.00,2013-06-05 00:53:00,
2013-06-04 20:58:00,54.2,44.6,30.05,NNW,348,0.0,7.0,70,0.00,,---,0.00,0.00,VWS V14.00,2013-06-05 00:58:00,
2013-06-04 21:00:00,47.4,42.2,29.80,NNE,16,2.0,4.0,82,0.00,,---,0.00,0.00,VWS V14.00,2013-06-05 01:00:00,
2013-06-04 21:03:00,54.0,44.5,30.05,WNW,286,0.0,7.0,70,0.00,,---,0.00,0.00,VWS V14.00,2013-06-05 01:03:00,
2013-06-04 21:08:00,53.8,44.6,30.05,WNW,286,3.0,7.0,71,0.00,,---,0.00,0.00,VWS V14.00,2013-06-05 01:08:00,
2013-06-04 21:13:00,53.6,44.4,30.05,NW,322,4.0,9.0,71,0.00,,---,0.00,0.00,VWS V14.00,2013-06-05 01:13:00,
2013-06-04 21:18:00,53.4,44.2,30.06,WNW,300,1.0,5.0,71,0.00,,---,0.00,0.00,VWS V14.00,2013-06-05 01:18:00,
2013-06-04 21:23:00,53.3,44.5,30.06,WNW,296,0.0,5.0,72,0.00,,---,0.00,0.00,VWS V14.00,2013-06-05 01:23:00,
2013-06-04 21:28:00,53.2,44.4,30.06,WNW,296,2.0,5.0,72,0.00,,---,0.00,0.00,VWS V14.00,2013-06-05 01:28:00,
2013-06-04 21:30:00,47.0,40.8,29.81,North,5,3.0,5.0,79,0.00,,---,0.00,0.00,VWS V14.00,2013-06-05 01:30:00,
2013-06-04 21:33:00,53.1,44.3,30.06,WNW,296,0.0,5.0,72,0.00,,---,0.00,0.00,VWS V14.00,2013-06-05 01:33:00,
2013-06-04 21:38:00,52.9,44.5,30.06,WNW,296,0.0,5.0,73,0.00,,---,0.00,0.00,VWS V14.00,2013-06-05 01:38:00,
2013-06-04 21:43:00,52.6,44.6,30.07,WNW,296,0.0,5.0,74,0.00,,---,0.00,0.00,VWS V14.00,2013-06-05 01:43:00,
2013-06-04 21:48:00,52.2,44.5,30.07,WNW,296,0.0,0.0,75,0.00,,---,0.00,0.00,VWS V14.00,2013-06-05 01:48:00,
2013-06-04 21:53:00,51.0,43.7,30.07,WNW,296,0.0,1.0,76,0.00,,---,0.00,0.00,VWS V14.00,2013-06-05 01:53:00,
2013-06-04 21:58:00,50.0,43.8,30.07,WNW,296,0.0,1.0,79,0.00,,---,0.00,0.00,VWS V14.00,2013-06-05 01:58:00,
2013-06-04 22:00:00,47.0,41.2,29.82,North,5,0.0,3.0,80,0.00,,---,0.00,0.00,VWS V14.00,2013-06-05 02:00:00,
2013-06-04 22:03:00,49.4,43.5,30.08,WNW,296,0.0,1.0,80,0.00,,---,0.00,0.00,VWS V14.00,2013-06-05 02:03:00,
2013-06-04 22:08:00,49.1,43.5,30.08,WNW,296,0.0,1.0,81,0.00,,---,0.00,0.00,VWS V14.00,2013-06-05 02:08:00,
2013-06-04 22:13:00,49.0,44.1,30.08,WNW,296,0.0,1.0,83,0.00,,---,0.00,0.00,VWS V14.00,2013-06-05 02:13:00,
2013-06-04 22:18:00,49.0,43.8,30.08,WNW,296,0.0,1.0,82,0.00,,---,0.00,0.00,VWS V14.00,2013-06-05 02:18:00,
2013-06-04 22:23:00,48.8,43.9,30.08,WNW,296,0.0,1.0,83,0.00,,---,0.00,0.00,VWS V14.00,2013-06-05 02:23:00,
2013-06-04 22:28:00,48.6,43.7,30.08,WNW,296,0.0,1.0,83,0.00,,---,0.00,0.00,VWS V14.00,2013-06-05 02:28:00,
2013-06-04 22:30:00,45.3,40.5,29.82,North,5,1.0,3.0,83,0.00,,---,0.00,0.00,VWS V14.00,2013-06-05 02:30:00,
2013-06-04 22:33:00,48.3,43.4,30.08,WNW,296,0.0,1.0,83,0.00,,---,0.00,0.00,VWS V14.00,2013-06-05 02:33:00,
2013-06-04 22:38:00,48.1,43.5,30.09,WNW,296,0.0,1.0,84,0.00,,---,0.00,0.00,VWS V14.00,2013-06-05 02:38:00,
2013-06-04 22:43:00,47.9,43.3,30.09,WNW,296,0.0,1.0,84,0.00,,---,0.00,0.00,VWS V14.00,2013-06-05 02:43:00,
2013-06-04 22:48:00,47.8,43.2,30.09,WNW,296,0.0,1.0,84,0.00,,---,0.00,0.00,VWS V14.00,2013-06-05 02:48:00,
2013-06-04 22:53:00,47.6,43.3,30.09,WNW,296,0.0,1.0,85,0.00,,---,0.00,0.00,VWS V14.00,2013-06-05 02:53:00,
2013-06-04 22:58:00,47.3,43.0,30.09,WNW,296,1.0,2.0,85,0.00,,---,0.00,0.00,VWS V14.00,2013-06-05 02:58:00,
2013-06-04 23:00:00,43.4,39.2,29.82,NE,46,0.0,4.0,85,0.00,,---,0.00,0.00,VWS V14.00,2013-06-05 03:00:00,
2013-06-04 23:03:00,47.0,42.7,30.09,WNW,296,0.0,2.0,85,0.00,,---,0.00,0.00,VWS V14.00,2013-06-05 03:03:00,
2013-06-04 23:08:00,46.8,42.5,30.09,WNW,296,0.0,2.0,85,0.00,,---,0.00,0.00,VWS V14.00,2013-06-05 03:08:00,
2013-06-04 23:13:00,46.5,42.5,30.09,WNW,296,0.0,2.0,86,0.00,,---,0.00,0.00,VWS V14.00,2013-06-05 03:13:00,
2013-06-04 23:18:00,46.3,42.3,30.09,NW,315,2.0,2.0,86,0.00,,---,0.00,0.00,VWS V14.00,2013-06-05 03:18:00,
2013-06-04 23:23:00,46.2,42.2,30.09,NW,321,1.0,2.0,86,0.00,,---,0.00,0.00,VWS V14.00,2013-06-05 03:23:00,
2013-06-04 23:28:00,46.0,42.0,30.09,NNW,327,0.0,2.0,86,0.00,,---,0.00,0.00,VWS V14.00,2013-06-05 03:28:00,
2013-06-04 23:30:00,42.1,38.5,29.83,NE,46,0.0,2.0,87,0.00,,---,0.00,0.00,VWS V14.00,2013-06-05 03:30:00,
2013-06-04 23:33:00,45.7,42.1,30.09,NNW,327,0.0,2.0,87,0.00,,---,0.00,0.00,VWS V14.00,2013-06-05 03:33:00,
2013-06-04 23:38:00,45.6,42.0,30.09,NNW,327,0.0,2.0,87,0.00,,---,0.00,0.00,VWS V14.00,2013-06-05 03:38:00,
2013-06-04 23:43:00,45.5,41.9,30.09,ENE,69,0.0,3.0,87,0.00,,---,0.00,0.00,VWS V14.00,2013-06-05 03:43:00,
2013-06-04 23:48:00,45.2,41.6,30.09,ENE,69,0.0,0.0,87,0.00,,---,0.00,0.00,VWS V14.00,2013-06-05 03:48:00,
2013-06-04 23:53:00,45.0,41.4,30.09,ENE,69,0.0,1.0,87,0.00,,---,0.00,0.00,VWS V14.00,2013-06-05 03:53:00,
2013-06-04 23:58:00,44.9,41.3,30.09,ENE,69,0.0,1.0,87,0.00,,---,0.00,0.00,VWS V14.00,2013-06-05 03:58:00,